You are not logged in, Click here to log in
ICAO: ZSOF Country: 中華人民共和國安徽省合肥市包河区
Latitude: 31.78 Longitude: 117.308
Total Arrivals: 3 Total Departures: 4
Latest Arrival: CI8027 (RCTP-ZSOF)Lun. Wang Latest Departure: CI8028 (ZSOF-RCTP)Lun. Wang
Scenery:
METAR : ZSOF 180000Z 08003MPS 030V100 CAVOK 26/20 Q1006 NOSIG

合肥駱崗機場